W3JBS-2 Weather Reports


time (UTC)temp
F
wind
direction
speed
knots
gust
knots
rain 1hr
in
rain 24hr
in
rain mn
in
humidity
%
barometer
mb
20260507000702 66 0 0.0 0.0 0.00 0.12 0.12 78 1007.2
20260506235202 66 214 1.7 6.1 0.00 0.12 0.12 77 1007.0
20260506233702 66 214 2.6 6.1 0.00 0.12 0.12 77 1006.9
20260506232202 67 222 2.6 5.2 0.00 0.12 0.12 76 1007.1
20260506230703 67 218 0.9 4.3 0.00 0.12 0.12 76 1006.9
20260506225202 67 219 0.9 7.0 0.00 0.12 0.12 76 1007.2
20260506223702 67 218 0.9 6.1 0.00 0.12 0.12 76 1006.8
20260506222202 67 0 0.0 8.7 0.00 0.12 0.12 75 1007.0
20260506220702 68 216 0.9 3.5 0.00 0.12 0.12 76 1006.7
20260506215202 67 0 0.0 7.0 0.00 0.12 0.12 76 1006.9
20260506213703 67 218 1.7 6.1 0.00 0.12 0.12 76 1006.6
20260506212202 67 228 2.6 8.7 0.00 0.12 0.12 77 1006.7
20260506210702 67 233 0.9 9.6 0.00 0.12 0.12 77 1006.5
20260506205202 67 202 6.1 10.4 0.00 0.12 0.12 77 1006.5
20260506203702 67 215 4.3 10.4 0.00 0.12 0.12 77 1006.5
20260506202202 65 210 0.9 5.2 0.00 0.12 0.12 80 1006.4
20260506200702 65 254 4.3 13.0 0.01 0.12 0.12 79 1006.5
20260506195202 64 214 5.2 17.4 0.01 0.12 0.12 80 1006.6
20260506193702 64 216 1.7 11.3 0.01 0.12 0.12 81 1006.8
20260506192202 64 213 4.3 12.2 0.01 0.12 0.12 81 1006.9
20260506190702 63 220 1.7 8.7 0.00 0.11 0.11 82 1007.0
20260506185202 63 210 2.6 11.3 0.00 0.11 0.11 82 1007.2
20260506183702 63 203 2.6 10.4 0.00 0.11 0.11 82 1007.1
20260506182202 62 196 4.3 13.9 0.00 0.11 0.11 83 1007.4
20260506180702 62 192 5.2 10.4 0.00 0.11 0.11 84 1007.5
20260506175202 62 198 3.5 13.0 0.00 0.11 0.11 84 1007.6
20260506173702 62 203 3.5 9.6 0.00 0.11 0.11 84 1007.7
20260506172202 62 197 2.6 13.0 0.00 0.11 0.11 84 1007.6
20260506170702 62 181 2.6 9.6 0.01 0.11 0.11 84 1007.8
20260506165202 62 170 2.6 12.2 0.03 0.11 0.11 85 1007.8
20260506163702 62 180 2.6 11.3 0.05 0.11 0.11 85 1007.8
20260506162202 62 159 3.5 12.2 0.06 0.11 0.11 85 1008.0
20260506160702 61 189 3.5 9.6 0.07 0.10 0.10 84 1008.3
20260506155202 62 211 1.7 5.2 0.06 0.08 0.08 84 1008.8
20260506153702 62 0 0.0 5.2 0.05 0.06 0.06 82 1009.1
20260506152202 62 215 2.6 7.0 0.05 0.05 0.05 81 1009.1
20260506150702 63 217 2.6 6.1 0.03 0.03 0.03 79 1008.8
20260506145202 63 0 0.0 8.7 0.02 0.02 0.02 78 1008.9
20260506143702 63 198 3.5 11.3 0.01 0.01 0.01 76 1008.9
20260506142202 64 229 1.7 13.9 0.00 0.00 0.00 72 1008.9
20260506140701 65 215 3.5 17.4 0.00 0.00 0.00 70 1008.9
20260506135202 66 216 0.9 9.6 0.00 0.00 0.00 69 1008.8
20260506133701 66 191 6.1 15.6 0.00 0.00 0.00 68 1008.6
20260506132202 65 0 0.0 8.7 0.00 0.00 0.00 71 1008.8
20260506130701 65 161 1.7 15.6 0.00 0.00 0.00 70 1008.8
20260506125202 65 213 2.6 9.6 0.00 0.00 0.00 70 1009.0
20260506123701 66 216 3.5 13.9 0.00 0.00 0.00 69 1009.0
20260506122202 65 207 5.2 12.2 0.00 0.00 0.00 70 1008.9
20260506120701 66 199 2.6 12.2 0.00 0.00 0.00 70 1008.7
20260506115202 65 187 0.9 15.6 0.00 0.00 0.00 70 1008.7
20260506113701 65 0 0.0 11.3 0.00 0.00 0.00 71 1008.5
20260506112202 64 176 4.3 12.2 0.00 0.00 0.00 72 1008.6
20260506110701 64 187 2.6 10.4 0.00 0.00 0.00 72 1008.6
20260506105202 64 189 4.3 10.4 0.00 0.00 0.00 73 1008.5
20260506103701 64 211 3.5 9.6 0.00 0.00 0.00 73 1008.4
20260506102202 64 0 0.0 11.3 0.00 0.00 0.00 73 1008.5
20260506100701 64 170 0.9 8.7 0.00 0.00 0.00 73 1008.3
20260506095202 64 165 2.6 11.3 0.00 0.00 0.00 73 1008.3
20260506093702 64 179 1.7 6.1 0.00 0.00 0.00 72 1008.4
20260506092202 64 191 2.6 7.8 0.00 0.00 0.00 72 1008.4
20260506090702 65 199 2.6 6.1 0.00 0.00 0.00 71 1008.3
20260506085201 65 0 0.0 10.4 0.00 0.00 0.00 71 1008.4
20260506083702 65 202 2.6 6.1 0.00 0.00 0.00 70 1008.4
20260506082201 65 0 0.0 7.0 0.00 0.00 0.00 70 1008.5
20260506080702 65 185 4.3 9.6 0.00 0.00 0.00 70 1008.6
20260506072201 66 189 2.6 7.0 0.00 0.00 0.00 69 1008.7
20260506070702 66 209 1.7 7.8 0.00 0.00 0.00 69 1008.7
20260506062201 66 199 0.9 9.6 0.00 0.00 0.00 68 1009.0
20260506060701 66 177 1.7 8.7 0.00 0.00 0.00 68 1009.0
20260506050701 65 171 1.7 6.1 0.00 0.00 0.00 67 1009.5
20260506043701 65 0 0.0 6.1 0.00 0.00 0.00 66 1009.7
20260506042202 66 0 0.0 6.1 0.00 0.00 0.00 65 1009.6
20260506040701 66 172 1.7 5.2 0.00 0.00 0.00 64 1009.6
20260506035202 66 0 0.0 3.5 0.00 0.00 0.00 63 1009.6
20260506033701 67 172 4.3 7.8 0.00 0.00 0.00 62 1009.5
20260506032202 67 172 1.7 10.4 0.00 0.00 0.00 61 1009.4
20260506030701 68 170 1.7 9.6 0.00 0.00 0.00 60 1009.4
20260506025202 69 0 0.0 12.2 0.00 0.00 0.00 58 1009.4
20260506023701 69 174 3.5 9.6 0.00 0.00 0.00 56 1009.4
20260506022201 70 0 0.0 7.0 0.00 0.00 0.00 54 1009.5
20260506020701 71 161 1.7 11.3 0.00 0.00 0.00 53 1009.4
20260506015202 71 162 2.6 9.6 0.00 0.00 0.00 52 1009.3
20260506013701 71 172 0.9 5.2 0.00 0.00 0.00 50 1009.2
20260506012201 72 164 0.9 10.4 0.00 0.00 0.00 49 1009.0
20260506010701 73 167 3.5 9.6 0.00 0.00 0.00 48 1008.8
20260506005201 73 187 1.7 12.2 0.00 0.00 0.00 46 1008.8
20260506003702 74 166 3.5 9.6 0.00 0.00 0.00 45 1008.7
20260506002201 75 0 0.0 5.2 0.00 0.00 0.00 44 1008.5